Weather History for KFSE - April, 2014

Change the Weather History Date:

Wednesday, April 30, 2014

  Actual Average Record
Temperature  
Mean Temperature 37 °F -  
Max Temperature 41 °F 57 °F 89 °F (1952)
Min Temperature 33 °F 34 °F 17 °F (1984)
Degree Days  
Heating Degree Days 28    
Moisture  
Dew Point 34 °F    
Average Humidity 92    
Maximum Humidity 100    
Minimum Humidity 81    
Precipitation  
Precipitation 0.02 in - - ()
Sea Level Pressure  
Sea Level Pressure 29.92 in    
Wind  
Wind Speed 15 mph (North)    
Max Wind Speed 23 mph    
Max Gust Speed 29 mph    
Visibility 8 miles    
Events Rain    
Averages and records for this station are not official NWS values.
T = Trace of Precipitation, MM = Missing Value Source: NWS Daily Summary

Daily Weather History Graph

Daily Weather History Graph

Search for Another Location

Airport or City:

Trip Planner

Search our weather history database for the weather conditions in past years. The results will help you decide how hot, cold, wet, or windy it might be!

Date:

Astronomy

Apr. 30, 2014 Rise Set
Actual Time 6:07 AM CDT 8:33 PM CDT
Civil Twilight 5:33 AM CDT 9:08 PM CDT
Nautical Twilight 4:50 AM CDT 9:51 PM CDT
Astronomical Twilight 4:01 AM CDT 10:41 PM CDT
Moon 7:07 AM CDT (4/30) 10:17 PM CDT (4/30)
Length of Visible Light 15h 34m
Length of Day
14h 26m
New Moon, 2% of the Moon is Illuminated
Apr 30
New Moon
May 6
First Quarter
May 14
Full
May 21
Last Quarter
May 28
New

Hourly Weather History & Observations

Time (CDT) Temp. Windchill Dew Point Humidity Pressure Visibility Wind Dir Wind Speed Gust Speed Precip Events Conditions
12:15 AM 35.6 °F 28.0 °F 30.2 °F 81% 29.96 in 10.0 mi NNE 10.4 mph - N/A   Mostly Cloudy
12:35 AM 35.6 °F 29.9 °F 30.2 °F 81% 29.96 in 10.0 mi NNE 6.9 mph - N/A   Overcast
12:55 AM 35.6 °F 27.5 °F 30.2 °F 81% 29.95 in 10.0 mi NNE 11.5 mph 16.1 mph N/A   Overcast
1:15 AM 35.6 °F 27.5 °F 30.2 °F 81% 29.95 in 10.0 mi NNE 11.5 mph - N/A   Light Drizzle
1:35 AM 35.6 °F 26.6 °F 32.0 °F 87% 29.94 in 7.0 mi North 13.8 mph - N/A   Drizzle
1:55 AM 35.6 °F 26.6 °F 30.2 °F 81% 29.94 in 7.0 mi NNE 13.8 mph 19.6 mph N/A   Drizzle
2:15 AM 35.6 °F 26.2 °F 30.2 °F 81% 29.94 in 7.0 mi NNE 15.0 mph - N/A   Drizzle
2:35 AM 33.8 °F 23.9 °F 30.2 °F 87% 29.93 in 7.0 mi North 15.0 mph - N/A   Drizzle
2:55 AM 33.8 °F 24.3 °F 30.2 °F 87% 29.93 in 5.0 mi North 13.8 mph - N/A   Drizzle
3:15 AM 33.8 °F 24.3 °F 30.2 °F 87% 29.93 in 7.0 mi North 13.8 mph - N/A   Light Drizzle
3:35 AM 33.8 °F 24.3 °F 32.0 °F 93% 29.93 in 7.0 mi North 13.8 mph - N/A   Drizzle
3:55 AM 33.8 °F 24.8 °F 32.0 °F 93% 29.93 in 7.0 mi North 12.7 mph - 0.01 in   Drizzle
4:15 AM 33.8 °F 23.5 °F 32.0 °F 93% 29.93 in 10.0 mi North 16.1 mph - N/A Rain Rain
4:35 AM 33.8 °F 25.3 °F 32.0 °F 93% 29.93 in 10.0 mi North 11.5 mph - N/A   Light Drizzle
4:55 AM 33.8 °F 24.8 °F 32.0 °F 93% 29.93 in 7.0 mi North 12.7 mph - N/A Rain Light Rain
5:15 AM 33.8 °F 24.8 °F 32.0 °F 93% 29.93 in 7.0 mi North 12.7 mph - N/A   Drizzle
5:35 AM 33.8 °F 24.8 °F 32.0 °F 93% 29.93 in 7.0 mi North 12.7 mph - N/A   Drizzle
6:15 AM 33.8 °F 24.8 °F 32.0 °F 93% 29.94 in 7.0 mi North 12.7 mph - N/A   Light Drizzle
6:35 AM 33.8 °F 23.5 °F 32.0 °F 93% 29.94 in 5.0 mi North 16.1 mph - N/A   Drizzle
6:55 AM 33.8 °F 23.9 °F 32.0 °F 93% 29.93 in 7.0 mi North 15.0 mph - 0.01 in Rain Rain
7:15 AM 33.8 °F 23.9 °F 32.0 °F 93% 29.94 in 5.0 mi North 15.0 mph - N/A Rain Light Rain
7:35 AM 33.8 °F 23.5 °F 33.8 °F 100% 29.94 in 5.0 mi North 16.1 mph - N/A   Light Drizzle
7:55 AM 33.8 °F 23.5 °F 33.8 °F 100% 29.94 in 5.0 mi North 16.1 mph 21.9 mph N/A   Light Drizzle
8:15 AM 33.8 °F 23.2 °F 33.8 °F 100% 29.94 in 5.0 mi North 17.3 mph - N/A   Light Drizzle
8:35 AM 33.8 °F 22.8 °F 33.8 °F 100% 29.93 in 4.0 mi North 18.4 mph 23.0 mph N/A   Light Drizzle
8:55 AM 35.6 °F 25.5 °F 33.8 °F 93% 29.93 in 7.0 mi North 17.3 mph 23.0 mph N/A   Light Drizzle
9:15 AM 35.6 °F 24.8 °F 33.8 °F 93% 29.93 in 7.0 mi North 19.6 mph - N/A   Light Drizzle
9:35 AM 35.6 °F 25.5 °F 33.8 °F 93% 29.94 in 10.0 mi North 17.3 mph 21.9 mph N/A   Overcast
10:15 AM 35.6 °F 25.5 °F 33.8 °F 93% 29.93 in 10.0 mi North 17.3 mph - N/A   Drizzle
10:35 AM 35.6 °F 24.8 °F 35.6 °F 100% 29.93 in 5.0 mi North 19.6 mph - N/A   Drizzle
10:55 AM 35.6 °F 25.2 °F 35.6 °F 100% 29.93 in 7.0 mi North 18.4 mph - N/A   Overcast
11:15 AM 37.4 °F 27.2 °F 35.6 °F 93% 29.92 in 10.0 mi North 19.6 mph - N/A   Overcast
11:35 AM 37.4 °F 26.9 °F 35.6 °F 93% 29.93 in 10.0 mi North 20.7 mph - N/A   Overcast
11:55 AM 37.4 °F 27.8 °F 35.6 °F 93% 29.93 in 10.0 mi NNW 17.3 mph 23.0 mph N/A   Overcast
12:15 PM 37.4 °F 27.2 °F 35.6 °F 93% 29.92 in 10.0 mi NNW 19.6 mph 25.3 mph N/A   Overcast
12:35 PM 37.4 °F 28.5 °F 35.6 °F 93% 29.92 in 10.0 mi North 15.0 mph - N/A   Overcast
12:55 PM 37.4 °F 28.2 °F 35.6 °F 93% 29.92 in 10.0 mi North 16.1 mph - N/A   Overcast
1:15 PM 37.4 °F 27.5 °F 35.6 °F 93% 29.92 in 10.0 mi NNW 18.4 mph 24.2 mph N/A   Overcast
1:35 PM 39.2 °F 29.8 °F 35.6 °F 87% 29.91 in 10.0 mi North 18.4 mph - N/A   Overcast
1:55 PM 39.2 °F 29.3 °F 35.6 °F 87% 29.91 in 10.0 mi North 20.7 mph 25.3 mph N/A   Overcast
2:15 PM 39.2 °F 29.6 °F 35.6 °F 87% 29.91 in 10.0 mi North 19.6 mph - N/A   Overcast
2:35 PM 39.2 °F 29.8 °F 35.6 °F 87% 29.91 in 10.0 mi North 18.4 mph - N/A   Overcast
2:55 PM 39.2 °F 28.7 °F 35.6 °F 87% 29.91 in 10.0 mi North 23.0 mph - N/A   Overcast
3:15 PM 39.2 °F 29.3 °F 37.4 °F 93% 29.91 in 10.0 mi North 20.7 mph 28.8 mph N/A   Overcast
3:35 PM 41.0 °F 31.6 °F 37.4 °F 87% 29.91 in 10.0 mi North 20.7 mph 28.8 mph N/A   Overcast
3:55 PM 39.2 °F 29.6 °F 37.4 °F 93% 29.91 in 7.0 mi North 19.6 mph 25.3 mph N/A   Overcast
4:15 PM 39.2 °F 30.2 °F 37.4 °F 93% 29.91 in 10.0 mi North 17.3 mph - N/A   Overcast
4:35 PM 39.2 °F 29.8 °F 35.6 °F 87% 29.91 in 10.0 mi North 18.4 mph 26.5 mph N/A   Overcast
4:55 PM 39.2 °F 29.6 °F 37.4 °F 93% 29.91 in 10.0 mi North 19.6 mph 25.3 mph N/A   Overcast
5:15 PM 39.2 °F 30.8 °F 37.4 °F 93% 29.91 in 10.0 mi North 15.0 mph 23.0 mph N/A   Overcast
5:36 PM 39.2 °F 30.8 °F 37.4 °F 93% 29.91 in 7.0 mi North 15.0 mph - N/A   Overcast
5:55 PM 39.2 °F 30.8 °F 37.4 °F 93% 29.91 in 3.0 mi North 15.0 mph 23.0 mph N/A   Light Drizzle
6:15 PM 39.2 °F 30.2 °F 37.4 °F 93% 29.91 in 5.0 mi North 17.3 mph - N/A   Light Drizzle
6:34 PM 39.2 °F 29.6 °F 37.4 °F 93% 29.92 in 10.0 mi North 19.6 mph - N/A   Overcast
6:55 PM 37.4 °F 27.5 °F 35.6 °F 93% 29.91 in 3.0 mi North 18.4 mph - N/A   Overcast
7:15 PM 37.4 °F 27.2 °F 35.6 °F 93% 29.91 in 7.0 mi North 19.6 mph - N/A   Overcast
7:35 PM 37.4 °F 28.2 °F 35.6 °F 93% 29.91 in 10.0 mi North 16.1 mph 19.6 mph N/A   Overcast
7:55 PM 37.4 °F 28.2 °F 35.6 °F 93% 29.92 in 7.0 mi North 16.1 mph - N/A   Overcast
8:15 PM 37.4 °F 27.8 °F 35.6 °F 93% 29.91 in 7.0 mi North 17.3 mph - N/A   Overcast
8:35 PM 37.4 °F 27.8 °F 35.6 °F 93% 29.91 in 5.0 mi North 17.3 mph 25.3 mph N/A   Overcast
9:15 PM 37.4 °F 27.8 °F 35.6 °F 93% 29.92 in 10.0 mi North 17.3 mph 20.7 mph N/A   Overcast
9:35 PM 37.4 °F 27.2 °F 35.6 °F 93% 29.92 in 10.0 mi North 19.6 mph 26.5 mph N/A   Overcast
9:55 PM 37.4 °F 26.6 °F 35.6 °F 93% 29.92 in 10.0 mi North 21.9 mph 25.3 mph N/A   Overcast
10:15 PM 37.4 °F 27.2 °F 35.6 °F 93% 29.92 in 10.0 mi North 19.6 mph - N/A   Overcast
10:35 PM 37.4 °F 27.8 °F 35.6 °F 93% 29.92 in 5.0 mi North 17.3 mph 23.0 mph N/A   Light Drizzle
10:55 PM 37.4 °F 28.9 °F 35.6 °F 93% 29.92 in 2.0 mi North 13.8 mph - N/A   Drizzle
11:15 PM 35.6 °F 25.9 °F 35.6 °F 100% 29.92 in 4.0 mi North 16.1 mph - N/A   Drizzle
11:35 PM 35.6 °F 26.6 °F 35.6 °F 100% 29.91 in 7.0 mi North 13.8 mph 20.7 mph N/A   Light Drizzle
11:55 PM 35.6 °F 26.2 °F 35.6 °F 100% 29.91 in 10.0 mi North 15.0 mph 21.9 mph N/A   Overcast